Regional Weather Roundup
Issued by NWS

Home | Current Version | Previous Version | Text Only | Print | Product List | Glossary On
Versions: 1 2 3 4 5 6 7 8 9 10 11 12 13 14 15 16 17 18 19 20 21 22 23 24 25 26 27 28 29 30 31 32 33 34 35 36 37 38 39 40 41 42 43 44 45 46 47 48 49 50
314
ASUS43 KLSX 050957
RWRMO

WEATHER SUMMARY FOR MISSOURI
NATIONAL WEATHER SERVICE SPRINGFIELD MO
500 AM CDT THU MAY 05 2016

NOTE: "FAIR" INDICATES FEW OR NO CLOUDS BELOW 12,000 FEET WITH NO
       SIGNIFICANT WEATHER AND/OR OBSTRUCTIONS TO VISIBILITY.
       CURRENT SKY AND/OR WEATHER CONDITIONS ARE NOT AVAILABLE FOR
       CHILLICOTHE AND FARMINGTON.

MOZ001>031-035>038-043-044-053-054-051100-
...NORTHERN AND WESTERN MISSOURI...

CITY           SKY/WX    TMP DP  RH WIND       PRES   REMARKS
KANSAS CTY INT PTCLDY    47  40  76 W8        30.01R
LEE`S SUMMIT   CLEAR     47  41  80 W6        30.00S
ST JOSEPH      CLEAR     43  41  93 CALM      30.02R
CHILLICOTHE      N/A     45  40  82 CALM      30.01R

$$
MOZ066>068-077>081-088>096-101>105-051100-
...SOUTHWEST MISSOURI...

CITY           SKY/WX    TMP DP  RH WIND       PRES   REMARKS
SPRINGFIELD    CLEAR     44  37  76 CALM      29.98S
JOPLIN         CLEAR     43  41  93 SW3       30.02S

$$
MOZ032>034-039>042-045>050-055>058-069>072-051100-
...CENTRAL MISSOURI...

CITY           SKY/WX    TMP DP  RH WIND       PRES   REMARKS
COLUMBIA       NOT AVBL
JEFFERSON CITY CLEAR     44  41  89 NW6       29.95S
ROLLA          CLEAR     45  37  73 NW5       29.92S
SEDALIA        CLEAR     50  39  66 NW7       29.99R
WARRENSBURG    CLEAR     45  39  81 NW5       29.99R

$$
MOZ051-052-059>065-051100-
...EAST CENTRAL MISSOURI...

CITY           SKY/WX    TMP DP  RH WIND       PRES   REMARKS
ST LOUIS INTL  CLEAR     47  38  71 NW5       29.91R

$$
MOZ072>076-082>087-097>100-106>115-051100-
...SOUTH CENTRAL AND SOUTHEAST MISSOURI...

CITY           SKY/WX    TMP DP  RH WIND       PRES   REMARKS
CAPE GIRARDEAU CLEAR     43  39  86 W3        29.87R
POPLAR BLUFF   CLEAR     48  38  68 W6        29.89R
WEST PLAINS    CLEAR     47  36  65 W7        29.95S

$$



USA.gov is the U.S. government's official web portal to all federal, state and local government web resources and services.